CAPE
0 0 0 0 0 0 0 0 0 0 0 0 0 0 0 0 0 0 0 0 0 0 0 0 0 0 0 0 0 0 0 0
0 0 0 0 0 0 0 0 0 0 0 0 0 0 0 0 0 0 0 0 0 0 0 0 0 0 0 0 0 0 0 0
0 0 0 0 0 0 0 0 0 0 0 0 0 0 0 0 0 0 0 0 0 0 0 0 0 0 0 0 0 0 0 0
0 0 0 0 0 0 0 0 0 0 0 0 0 0 0 0 0 0 0 0 0 0 0 0 0 0 0 0 0 0 0 0
0 0 0 0 0 0 0 0 0 0 0 0 0 0 0 0 0 0 0 0 0 0 0 0 0 0 0 0 0 0 0 0
0 0 0 0 0 0 0 0 0 0 0 0 0 0 0 0 0 0 0 0 0 0 0 0 0 0 0 0 0 0 0 0
0 0 0 0 0 0 0 0 0 0 0 0 0 0 0 0 0 0 0 0 0 0 0 0 0 0 0 0 0 0 0 0
0 0 0 0 0 0 0 0 0 0 0 0 0 0 0 0 0 0 0 0 0 0 0 0 0 0 0 0 0 0 0 16
0 0 0 0 0 0 0 0 0 0 0 0 0 0 0 0 0 0 0 0 0 0 0 0 0 0 0 0 0 0 0 0
0 0 0 0 0 0 0 0 0 0 0 0 0 0 0 0 0 0 0 0 0 0 0 0 0 0 0 0 0 0 0 0
0 0 0 0 0 0 0 0 0 0 0 0 0 0 0 0 0 0 0 0 0 0 0 0 0 0 0 0 0 0 0 0
0 0 0 0 0 0 0 0 0 0 0 0 0 0 0 0 0 0 0 0 0 0 0 0 0 0 0 0 0 0 0 0
0 0 0 0 0 0 0 0 0 0 0 0 0 0 0 0 0 0 0 0 0 0 0 0 0 0 0 0 0 0 0 0
0 0 0 0 0 0 0 0 0 0 0 0 0 0 0 0 0 0 0 0 0 0 0 0 0 0 0 0 0 0 0 0
0 0 0 0 0 0 0 0 0 0 0 0 0 0 0 0 0 0 0 0 0 0 0 0 0 0 0 4 0 0 0 0
0 0 0 0 0 0 0 0 0 0 0 0 0 0 0 0 0 0 0 0 0 0 0 0 0 0 1 1 0 0 0 17
0 0 0 0 0 0 0 0 0 0 0 0 0 0 0 0 0 0 0 0 0 0 0 0 0 0 3 7 2 0 0 7
0 0 0 0 0 0 0 0 0 0 0 0 0 0 0 0 0 0 0 0 0 0 0 0 0 0 6 6 5 0 0 0
0 0 0 0 0 0 0 0 0 0 0 0 0 0 0 0 0 0 0 0 0 0 0 0 0 0 6 11 2 0 0 0
CIN
-0 -0 -0 -0 -0 -0 -0 -0 -0 -0 -0 -0 -0 -0 -0 -0 -0 -0 -0 -0 -0 -0 -0 -0 -0 -0 -0 -0 -0 -0 -0 -0
-0 -0 -0 -0 -0 -0 -0 -0 -0 -0 -0 -0 -0 -0 -0 -0 -0 -0 -0 -0 -0 -0 -0 -0 -0 -0 -0 -0 -0 -0 -0 -0
-0 -0 -0 -0 -0 -0 -0 -0 -0 -0 -0 -0 -0 -0 -0 -0 -0 -0 -0 -0 -0 -0 -0 -0 -0 -0 -0 -0 -0 -0 -0 -0
-0 -0 -0 -0 -0 -0 -0 -0 -0 -0 -0 -0 -0 -0 -0 -0 -0 -0 -0 -0 -0 -0 -0 -0 -0 -0 -0 -0 -0 -0 -0 -0
-0 -0 -0 -0 -0 -0 -0 -0 -0 -0 -0 -0 -0 -0 -0 -0 -0 -0 -0 -0 -0 -0 -0 -0 -0 -0 -0 -0 -0 -0 -0 -0
-0 -0 -0 -0 -0 -0 -0 -0 -0 -0 -0 -0 -0 -0 -0 -0 -0 -0 -0 -0 -0 -0 -0 -0 -0 -0 -0 -0 -0 -0 -0 -0
-0 -0 -0 -0 -0 -0 -0 -0 -0 -0 -0 -0 -0 -0 -0 -0 -0 -0 -0 -0 -0 -0 -0 -0 -0 -0 -0 -0 -0 -0 -0 -0
-0 -0 -0 -0 -0 -0 -0 -0 -0 -0 -0 -0 -0 -0 -0 -0 -0 -0 -0 -0 -0 -0 -0 -0 -0 -0 -0 -0 -0 -0 -0 -0
-0 -0 -0 -0 -0 -0 -0 -0 -0 -0 -0 -0 -0 -0 -0 -0 -0 -0 -0 -0 -0 -0 -0 -0 -0 -0 -0 -0 -0 -0 -0 -0
-0 -0 -0 -0 -0 -0 -0 -0 -0 -0 -0 -0 -0 -0 -0 -0 -0 -0 -0 -0 -0 -0 -0 -0 -0 -0 -0 -0 -0 -0 -0 -0
-0 -0 -0 -0 -0 -0 -0 -0 -0 -0 -0 -0 -0 -0 -0 -0 -0 -0 -0 -0 -0 -0 -0 -0 -0 -0 -0 -0 -0 -0 -0 -0
-0 -0 -0 -0 -0 -0 -0 -0 -0 -0 -0 -0 -0 -0 -0 -0 -0 -0 -0 -0 -0 -0 -0 -0 -0 -0 -0 -0 -0 -0 -0 -0
-0 -0 -0 -0 -0 -0 -0 -0 -0 -0 -0 -0 -0 -0 -0 -0 -0 -0 -0 -0 -0 -0 -0 -0 -0 -0 -0 -0 -0 -0 -0 -0
-0 -0 -0 -0 -0 -0 -0 -0 -0 -0 -0 -0 -0 -0 -0 -0 -0 -0 -0 -0 -0 -0 -0 -0 -0 -0 -0 -0 -0 -0 -0 -0
-0 -0 -0 -0 -0 -0 -0 -0 -0 -0 -0 -0 -0 -0 -0 -0 -0 -0 -0 -0 -0 -0 -0 -0 -0 -0 -0 -1 -0 -0 -0 -0
-0 -0 -0 -0 -0 -0 -0 -0 -0 -0 -0 -0 -0 -0 -0 -0 -0 -0 -0 -0 -0 -0 -0 -0 -0 -0 -0 -2 -0 -0 -0 -0
-0 -0 -0 -0 -0 -0 -0 -0 -0 -0 -0 -0 -0 -0 -0 -0 -0 -0 -0 -0 -0 -0 -0 -0 -0 -0 -0 -0 -1 -0 -0 -0
-0 -0 -0 -0 -0 -0 -0 -0 -0 -0 -0 -0 -0 -0 -0 -0 -0 -0 -0 -0 -0 -0 -0 -0 -0 -0 -0 -0 -0 -0 -0 -1
-0 -0 -0 -0 -0 -0 -0 -0 -0 -0 -0 -0 -0 -0 -0 -0 -0 -0 -0 -0 -0 -0 -0 -0 -0 -0 -0 -0 -0 -0 -0 -0
Wind_Speed
14 11 15 14 12 10 9 5 4 6 3 5 5 4 2 4 3 4 5 3 5 4 4 5 5 5 5 4 6 7 8 10
15 10 14 13 10 10 8 7 6 6 4 3 3 3 2 3 3 5 4 3 4 4 4 4 5 5 5 6 4 6 8 10
15 15 15 12 10 9 9 8 8 5 4 3 2 3 3 2 3 3 3 3 2 4 4 4 5 4 6 5 6 3 3 8
17 16 12 13 10 9 10 9 8 6 7 5 4 4 3 4 4 4 4 3 4 4 5 5 5 4 4 4 5 5 3 4
18 17 13 12 9 11 12 10 8 7 7 5 6 3 2 2 2 4 5 7 6 6 6 6 6 4 6 4 4 2 3 3
20 17 15 15 13 12 11 10 8 7 6 5 4 4 2 3 4 6 7 6 6 6 6 7 6 4 5 5 5 4 1 1
18 15 18 14 12 12 10 9 7 6 5 5 5 7 5 5 5 5 4 3 4 6 7 6 6 6 5 4 4 5 5 4
19 19 15 15 13 11 10 9 7 6 5 5 6 7 7 6 5 4 5 4 3 5 6 6 5 5 5 5 5 6 6 7
17 18 16 15 12 10 10 10 7 6 6 5 6 7 4 4 4 4 4 3 3 5 6 6 7 6 5 5 4 5 6 5
18 17 15 15 12 9 11 9 7 7 6 6 6 6 6 5 5 4 3 4 4 5 5 7 6 6 6 6 4 7 6 5
15 15 15 13 12 11 9 8 7 7 7 6 5 5 6 5 5 6 6 5 5 6 6 6 5 6 6 6 6 7 6 7
16 15 14 13 11 9 7 7 8 6 6 5 5 5 6 5 5 5 4 5 6 6 6 5 5 6 5 7 9 9 9 8
16 15 14 12 10 7 7 7 7 5 6 6 5 6 6 5 5 5 6 6 5 5 5 4 5 5 5 8 10 10 9 10
15 12 11 11 9 7 8 7 6 5 7 6 6 6 4 5 5 6 5 6 5 6 3 4 5 5 6 9 10 10 10 9
12 10 10 10 8 9 9 7 6 6 6 6 5 4 4 4 5 6 6 6 5 5 3 5 5 5 8 11 11 10 10 9
12 12 11 9 9 9 8 6 5 6 5 6 4 4 5 6 6 6 6 5 5 5 5 6 5 5 9 13 10 11 9 7
13 14 13 11 11 9 9 6 5 6 6 6 5 5 5 6 6 6 7 6 6 5 6 6 5 5 21 22 17 9 10 7
14 13 11 9 11 11 8 6 5 6 7 5 5 5 6 6 6 6 7 6 6 5 5 5 3 7 23 22 22 9 8 7
12 10 12 10 11 10 8 6 7 7 6 5 5 5 5 6 6 7 7 5 6 3 5 6 5 9 22 22 21 9 9 9
Wind_Direction
144 144 122 117 114 114 111 96 28 1 36 38 27 29 42 97 109 104 93 50 13 33 8 356 1 357 349 3 27 17 16 348
150 128 123 117 113 108 114 96 49 40 13 42 17 345 2 52 86 100 108 73 32 52 14 4 3 9 354 15 24 21 13 354
149 132 127 126 123 120 108 98 77 44 13 9 28 333 38 74 77 40 70 75 41 79 33 13 19 12 2 25 43 12 359 9
151 138 127 123 122 119 108 104 89 62 37 22 0 4 22 21 13 2 350 20 47 60 35 34 23 30 360 50 42 42 9 356
144 138 133 133 125 112 104 100 92 79 58 41 39 39 8 341 357 14 354 17 51 36 31 29 34 10 12 55 39 25 40 339
144 142 136 128 116 111 108 100 88 79 72 58 47 14 327 4 19 25 6 6 50 36 36 31 19 353 27 55 16 349 333 242
134 133 123 117 114 106 104 99 96 85 74 63 52 25 17 34 17 15 353 357 23 26 27 22 360 356 49 24 345 332 314 282
134 124 121 121 115 112 109 106 100 92 63 67 57 44 38 36 18 7 8 4 8 9 19 9 348 37 31 7 345 330 317 327
124 123 123 121 114 109 111 107 101 88 71 62 58 51 41 17 17 19 14 11 358 6 7 356 24 33 9 358 337 321 320 308
118 119 116 115 110 102 108 105 102 87 73 67 51 43 39 19 18 26 12 356 355 2 360 20 43 16 359 356 329 322 311 304
111 112 112 107 101 97 95 102 97 89 79 62 55 35 43 32 29 18 7 352 352 0 8 56 27 4 358 354 330 314 324 313
113 108 109 108 104 102 109 98 94 85 90 82 60 27 33 30 28 13 7 354 349 5 46 46 10 3 2 346 331 325 326 310
110 116 118 117 118 112 103 100 92 107 102 82 61 43 31 23 16 8 2 352 350 346 82 36 12 1 360 338 329 328 321 313
115 117 120 120 122 125 111 103 108 99 96 86 57 43 30 19 8 359 354 353 340 355 86 36 4 13 342 333 332 324 320 315
123 127 120 125 128 115 103 91 88 86 90 79 63 29 31 14 12 359 353 343 342 16 51 36 16 26 342 349 335 329 320 322
139 129 125 125 108 111 105 106 103 94 84 75 48 41 37 18 9 357 352 343 327 39 45 43 30 1 354 354 346 336 329 355
128 129 136 134 126 120 110 101 106 103 91 79 49 44 36 13 7 355 353 336 339 65 49 61 41 356 2 1 3 349 353 358
134 140 140 125 122 120 113 109 96 85 82 71 40 42 42 360 1 1 343 336 12 65 48 49 69 359 7 5 4 350 353 354
140 125 109 101 102 106 113 107 92 78 65 68 46 42 32 3 360 358 339 355 20 32 34 42 42 8 12 6 8 349 351 337